Volver al catálogo

CZ-2C YXX STAGE 2

ActivoSSO
NORAD 67647·ROCKET BODY·🇨🇳 China
Este nombre de satélite aún no ha sido confirmado por fuentes oficiales.

Lanzado Jan 31, 2026 desde Jiuquan Satellite Launch Center

Loading…

Próximos Pases (próximas 24 horas)

TLE

ActualizadoSource: Space-Track

Época: Sep 14, 2026, 11:26 UTC

1 67647U 26021B   26257.47678756  .00008590  00000-0  23488-3 0  9993
2 67647  97.6368 337.3060 0140930  68.2559 293.3612 15.28121628 34497

Sigue CZ-2C YXX STAGE 2 en tiempo real con AllMySat

Download on the App Store